Regional Weather Roundup
Issued by NWS

Home | Current Version | Previous Version | Text Only | Print | Product List | Glossary On
Versions: 1 2 3 4 5 6 7 8 9 10 11 12 13 14 15 16 17 18 19 20 21 22 23 24 25 26 27
000
ASUS45 KBOU 280807
RWRCO

WEATHER ROUNDUP FOR COLORADO
NATIONAL WEATHER SERVICE DENVER/BOULDER CO
200 AM MDT TUE MAR 28 2017

NOTE: "FAIR" INDICATES FEW OR NO CLOUDS BELOW 12000 FEET WITH NO
SIGNIFICANT WEATHER AND/OR OBSTRUCTIONS TO VISIBILITY.

COZ001>005-013-030-031-280900-
...NORTHWEST COLORADO...

CITY           SKY/WX    TMP DP  RH WIND       PRES   REMARKS
CRAIG          CLOUDY    39  33  79 S8        29.85R
HAYDEN         FAIR      36  28  75 SW5       29.85R
MEEKER         LGT RAIN  39  37  92 S3        29.85S
MOUNT WERNER   NOT AVBL
STEAMBOAT SPGS FAIR      34  32  92 CALM      29.84S
WALDEN         NOT AVBL
$$

COZ006>008-011-280900-
...WEST CENTRAL VALLEYS...

CITY           SKY/WX    TMP DP  RH WIND       PRES   REMARKS
GRAND JUNCTION LGT RAIN  43  43 100 S9        29.85S
MONTROSE       LGT RAIN  40  38  93 N3        29.87S
EAGLE          RAIN      37  33  85 S5        29.90R
RIFLE          LGT RAIN  42  39  89 W9        29.86R
DELTA          CLOUDY    44  39  84 CALM      29.87R
NUCLA          LGT RAIN  39  36  87 CALM      29.91S
$$

COZ017>023-064>068-280900-
...SOUTHWEST COLORADO...

CITY           SKY/WX    TMP DP  RH WIND       PRES   REMARKS
DURANGO        LGT RAIN  36  33  89 CALM      29.88F
CORTEZ         LGT RAIN  40  39  97 SW8       29.86F
PAGOSA SPRINGS LGT SNOW  36  36  98 CALM      29.92S
TELLURIDE      LGT SNOW  32  32 100 CALM      29.91S VSB 3/4
WOLF CREEK PAS HVY SNOW  23  23 100 S29G44    29.95F VSB 1/4 WCI   6
$$

COZ009-010-012-014-032>034-037-058>063-280900-
...CENTRAL COLORADO...

CITY           SKY/WX    TMP DP  RH WIND       PRES   REMARKS
ASPEN          LGT SNOW  32  32 100 N3        29.87R VSB 1
BUENA VISTA    CLOUDY    37  30  75 SE8       29.86S
COPPER MTN     LGT SNOW  28  23  80 CALM      29.94S
BERTHOUD PASS  HAZE      21  10  63 S18G24    29.96S VSB<1/4 WCI   6
COTTONWOOD PAS CLOUDY    36  30  80 CALM      29.90F
GUNNISON       LGT RAIN  37  34  89 N3        29.88S
KREMMLING      CLOUDY    37  36  93 CALM      29.88R
LEADVILLE      CLOUDY    29  26  89 CALM      29.88F
MONARCH PASS   FLURRIES  25  23  93 S14       30.05S WCI  13
SALIDA         MOCLDY    45  32  61 S7        29.93F
SUNLIGHT       LGT SNOW  27  27 100 SW6       29.95F WCI  20
WILKERSON PASS FOG       30  28  93 SW6       29.97F VSB 1   WCI  24
$$

COZ069>075-280900-
...SAN LUIS VALLEY/SANGRE DE CRISTO MOUNTAINS...

CITY           SKY/WX    TMP DP  RH WIND       PRES   REMARKS
ALAMOSA        FAIR      36  34  92 SE13      29.87F
LA VETA PASS   NOT AVBL
SAGUACHE       CLOUDY    36  32  87 S7        29.90S
$$

COZ035-036-038>040-280900-
...NORTHERN COLORADO FRONT RANGE...

CITY           SKY/WX    TMP DP  RH WIND       PRES   REMARKS
DENVER INTL AP FAIR      45  41  86 W9        29.83S
DMNS CITY PARK   N/A     47  39  75 N3        29.84S
AURORA         CLOUDY    45  43  91 CALM      29.85S
FRONT RANGE AP CLOUDY    46  43  87 SW9       29.84S
ERIE MUNI ARPT CLOUDY    45  42  89 CALM      29.83S
BOULDER MUN AP LGT RAIN  46  43  87 CALM      29.83S
CENTENNIAL     CLOUDY    47  39  74 N6        29.84F
BROOMFIELD     CLOUDY    45  41  87 N9        29.84S
FORT COLLINS   FAIR      46  41  82 N9        29.83F
LONGMONT       MOCLDY    47  42  81 NW7       29.85
$$

COZ041-046-047-076>085-087-088-280900-
...PIKES PEAK/PALMER DIVIDE AND SOUTHERN FOOTHILLS...

CITY           SKY/WX    TMP DP  RH WIND       PRES   REMARKS
COLO. SPRINGS  MOCLDY    43  39  86 CALM      29.86S
A. F. ACADEMY  NOT AVBL
SCHRIEVER AFB  FAIR      41  39  95 NE7       29.85F
ELLICOTT       NOT AVBL
FALCON         FAIR      39  38  97 SE3       29.88S
FORT CARSON    MOCLDY    43  40  89 NW3       29.84S
LIMON          FAIR      41  37  86 SE9       29.86F
MONUMENT HILL  MOCLDY    39  36  87 S14G21    29.87S
TRINIDAD       CLOUDY    48  40  73 W8        29.85R
$$

COZ042>045-048>051-090-091-280900-
...NORTHEAST COLORADO...

CITY           SKY/WX    TMP DP  RH WIND       PRES   REMARKS
GREELEY ARPT   FAIR      44  40  85 NE6       29.82S
AKRON          MOCLDY    45  36  70 SE12      29.85F
BURLINGTON     FAIR      45  40  82 SE17      29.88F
WRAY           NOT AVBL
STERLING       CLOUDY    50  39  66 S14G20    29.84S
HOLYOKE        MOCLDY    50  43  76 SE9       29.89S
FORT MORGAN    CLOUDY    48  35  59 E9        29.84F
$$

COZ086-089-092>099-280900-
...SOUTHEAST COLORADO...

CITY           SKY/WX    TMP DP  RH WIND       PRES   REMARKS
PUEBLO         CLOUDY    49  45  86 E7        29.79F
LA JUNTA       FAIR      50  36  58 E10       29.80S
LAMAR          FAIR      46  35  65 E9        29.84S
SPRINGFIELD      N/A     40  35  83 SE6       29.86R
$$




USA.gov is the U.S. government's official web portal to all federal, state and local government web resources and services.